VOZ512 YMLT-YMML

Flight info

Callsign VOZ512
Flight time 0h 48m
Altitude 30000
Route LT H215 RAZZI W687 ML
Aircraft B738/M-SDE2E3FGHIRWXY/LB1

Departure

Time 2026-04-14 08:39
Airport Launceston Airport (YMLT)

Arrival

Time 2026-04-14 09:28
Airport Melbourne Airport (YMML)
Time Latitude Longitude Altitude Speed Heading
2026-04-14 08:22 -41.54265 147.20640 583 ft 0 kts 294°
2026-04-14 08:31 -41.54269 147.20652 583 ft 3 kts 294°
2026-04-14 08:32 -41.54276 147.20674 583 ft 3 kts 301°
2026-04-14 08:32 -41.54290 147.20690 583 ft 3 kts
2026-04-14 08:32 -41.54301 147.20686 583 ft 0 kts 43°
2026-04-14 08:34 -41.54297 147.20694 583 ft 2 kts 63°
2026-04-14 08:35 -41.54307 147.20729 583 ft 7 kts 126°
2026-04-14 08:35 -41.54343 147.20769 583 ft 7 kts 145°
2026-04-14 08:35 -41.54388 147.20810 583 ft 9 kts 147°
2026-04-14 08:35 -41.54474 147.20881 586 ft 20 kts 147°
2026-04-14 08:36 -41.54580 147.20973 589 ft 17 kts 147°
2026-04-14 08:36 -41.54686 147.21064 587 ft 18 kts 147°
2026-04-14 08:36 -41.54799 147.21161 585 ft 21 kts 147°
2026-04-14 08:36 -41.54892 147.21240 583 ft 22 kts 147°
2026-04-14 08:37 -41.55021 147.21351 583 ft 22 kts 148°
2026-04-14 08:37 -41.55146 147.21456 584 ft 20 kts 147°
2026-04-14 08:37 -41.55214 147.21525 587 ft 7 kts 129°
2026-04-14 08:37 -41.55229 147.21579 588 ft 5 kts 96°
2026-04-14 08:38 -41.55222 147.21631 589 ft 7 kts 66°
2026-04-14 08:38 -41.55198 147.21667 590 ft 4 kts 29°
2026-04-14 08:38 -41.55125 147.21632 592 ft 27 kts 328°
2026-04-14 08:38 -41.54787 147.21340 588 ft 88 kts 327°
2026-04-14 08:39 -41.54110 147.20763 590 ft 141 kts 327°
2026-04-14 08:39 -41.53209 147.19971 917 ft 159 kts 327°
2026-04-14 08:39 -41.52276 147.19154 1607 ft 162 kts 328°
2026-04-14 08:39 -41.51200 147.18525 2105 ft 177 kts 347°
2026-04-14 08:40 -41.49922 147.18248 2568 ft 195 kts 351°
2026-04-14 08:40 -41.48556 147.18012 3120 ft 206 kts 348°
2026-04-14 08:40 -41.47116 147.17618 3674 ft 218 kts 344°
2026-04-14 08:40 -41.45519 147.17299 4111 ft 244 kts 349°
2026-04-14 08:41 -41.43826 147.16819 4774 ft 254 kts 336°
2026-04-14 08:41 -41.42186 147.15889 5580 ft 258 kts 328°
2026-04-14 08:41 -41.40544 147.14803 6458 ft 263 kts 328°
2026-04-14 08:41 -41.38872 147.13758 7141 ft 277 kts 330°
2026-04-14 08:42 -41.37039 147.12715 7684 ft 295 kts 332°
2026-04-14 08:42 -41.35064 147.11661 8364 ft 307 kts 333°
2026-04-14 08:42 -41.33082 147.10615 9182 ft 313 kts 333°
2026-04-14 08:42 -41.31048 147.09522 10035 ft 318 kts 332°
2026-04-14 08:43 -41.28992 147.08397 10877 ft 322 kts 332°
2026-04-14 08:43 -41.26886 147.07233 11419 ft 336 kts 331°
2026-04-14 08:43 -41.24687 147.06019 12016 ft 346 kts 331°
2026-04-14 08:43 -41.22441 147.04794 12759 ft 351 kts 332°
2026-04-14 08:44 -41.20161 147.03559 13531 ft 356 kts 332°
2026-04-14 08:44 -41.17850 147.02305 14289 ft 360 kts 331°
2026-04-14 08:44 -41.15513 147.01033 15056 ft 364 kts 331°
2026-04-14 08:44 -41.13156 146.99749 15798 ft 368 kts 331°
2026-04-14 08:45 -41.10772 146.98450 16530 ft 372 kts 331°
2026-04-14 08:45 -41.08359 146.97139 17209 ft 377 kts 331°
2026-04-14 08:45 -41.05917 146.95815 17885 ft 381 kts 331°
2026-04-14 08:45 -41.03449 146.94478 18564 ft 385 kts 331°
2026-04-14 08:46 -41.00986 146.93144 19198 ft 389 kts 331°
2026-04-14 08:46 -40.98472 146.91782 19840 ft 392 kts 331°
2026-04-14 08:46 -40.95935 146.90408 20470 ft 396 kts 331°
2026-04-14 08:46 -40.93369 146.89021 21061 ft 399 kts 331°
2026-04-14 08:47 -40.90786 146.87627 21646 ft 403 kts 331°
2026-04-14 08:47 -40.88176 146.86219 22186 ft 406 kts 331°
2026-04-14 08:47 -40.85550 146.84803 22718 ft 409 kts 331°
2026-04-14 08:47 -40.82903 146.83377 23229 ft 412 kts 331°
2026-04-14 08:48 -40.80231 146.81939 23734 ft 415 kts 331°
2026-04-14 08:48 -40.77573 146.80510 24198 ft 419 kts 331°
2026-04-14 08:48 -40.74867 146.79056 24670 ft 421 kts 331°
2026-04-14 08:48 -40.72142 146.77594 25136 ft 424 kts 331°
2026-04-14 08:49 -40.69400 146.76124 25568 ft 427 kts 331°
2026-04-14 08:49 -40.66642 146.74646 25999 ft 429 kts 332°
2026-04-14 08:49 -40.63870 146.73162 26404 ft 431 kts 332°
2026-04-14 08:49 -40.61083 146.71671 26801 ft 433 kts 332°
2026-04-14 08:50 -40.58275 146.70170 27175 ft 436 kts 332°
2026-04-14 08:50 -40.55460 146.68667 27553 ft 437 kts 332°
2026-04-14 08:50 -40.52637 146.67163 27992 ft 436 kts 332°
2026-04-14 08:50 -40.49833 146.65672 28532 ft 434 kts 332°
2026-04-14 08:51 -40.47033 146.64181 28866 ft 436 kts 332°
2026-04-14 08:51 -40.44218 146.62680 29120 ft 438 kts 332°
2026-04-14 08:51 -40.41392 146.61175 29372 ft 439 kts 332°
2026-04-14 08:51 -40.38553 146.59669 29624 ft 439 kts 332°
2026-04-14 08:52 -40.35711 146.58164 29880 ft 439 kts 332°
2026-04-14 08:52 -40.32878 146.56664 30068 ft 442 kts 332°
2026-04-14 08:52 -40.27231 146.53678 30028 ft 432 kts 332°
2026-04-14 08:53 -40.21643 146.50717 30039 ft 440 kts 332°
2026-04-14 08:53 -40.15903 146.47687 30041 ft 448 kts 332°
2026-04-14 08:54 -40.10129 146.44657 30034 ft 444 kts 332°
2026-04-14 08:54 -40.04398 146.41644 30042 ft 444 kts 332°
2026-04-14 08:55 -39.98656 146.38629 30051 ft 445 kts 333°
2026-04-14 08:55 -39.92896 146.35643 30041 ft 445 kts 333°
2026-04-14 08:56 -39.87153 146.32735 30060 ft 445 kts 333°
2026-04-14 08:56 -39.81392 146.29771 30066 ft 445 kts 333°
2026-04-14 08:57 -39.75629 146.26805 30062 ft 444 kts 333°
2026-04-14 08:57 -39.69863 146.23872 30080 ft 445 kts 333°
2026-04-14 08:58 -39.64089 146.20922 30086 ft 446 kts 333°
2026-04-14 08:58 -39.58302 146.17971 30094 ft 447 kts 333°
2026-04-14 08:59 -39.52500 146.15024 30101 ft 447 kts 333°
2026-04-14 08:59 -39.46745 146.12102 30105 ft 447 kts 333°
2026-04-14 09:00 -39.40945 146.09163 30112 ft 447 kts 333°
2026-04-14 09:00 -39.35152 146.06232 30118 ft 448 kts 333°
2026-04-14 09:01 -39.29336 146.03296 30118 ft 448 kts 333°
2026-04-14 09:01 -39.24502 146.00860 30123 ft 449 kts 333°
2026-04-14 09:02 -39.18677 145.97928 30130 ft 449 kts 333°
2026-04-14 09:02 -39.12866 145.95010 30136 ft 448 kts 333°
2026-04-14 09:03 -39.07049 145.92093 30137 ft 449 kts 333°
2026-04-14 09:03 -39.04159 145.90648 29616 ft 446 kts 333°
2026-04-14 09:03 -39.01253 145.89192 28840 ft 448 kts 333°
2026-04-14 09:04 -38.98336 145.87731 28007 ft 452 kts 333°
2026-04-14 09:04 -38.95419 145.86274 27665 ft 444 kts 334°
2026-04-14 09:04 -38.92555 145.84853 27150 ft 439 kts 334°
2026-04-14 09:04 -38.89724 145.83445 26654 ft 435 kts 334°
2026-04-14 09:05 -38.86947 145.82059 26167 ft 431 kts 334°
2026-04-14 09:05 -38.84172 145.80676 25828 ft 424 kts 334°
2026-04-14 09:05 -38.81442 145.79319 25569 ft 415 kts 334°
2026-04-14 09:05 -38.78774 145.77996 25296 ft 408 kts 334°
2026-04-14 09:06 -38.76149 145.76693 25024 ft 401 kts 334°
2026-04-14 09:06 -38.73561 145.75407 24627 ft 397 kts 334°
2026-04-14 09:06 -38.70992 145.74131 24215 ft 395 kts 334°
2026-04-14 09:06 -38.68440 145.72866 23820 ft 392 kts 334°
2026-04-14 09:07 -38.65902 145.71610 23407 ft 390 kts 334°
2026-04-14 09:07 -38.63378 145.70363 23003 ft 388 kts 334°
2026-04-14 09:07 -38.60864 145.69121 22605 ft 385 kts 334°
2026-04-14 09:07 -38.58399 145.67904 22209 ft 383 kts 334°
2026-04-14 09:08 -38.55923 145.66682 21833 ft 380 kts 334°
2026-04-14 09:08 -38.53465 145.65470 21441 ft 378 kts 334°
2026-04-14 09:08 -38.51021 145.64265 21053 ft 375 kts 334°
2026-04-14 09:08 -38.48591 145.63069 20675 ft 373 kts 334°
2026-04-14 09:09 -38.46235 145.61748 20278 ft 367 kts 327°
2026-04-14 09:09 -38.44012 145.60189 19910 ft 364 kts 327°
2026-04-14 09:09 -38.41782 145.58647 19530 ft 362 kts 327°
2026-04-14 09:09 -38.39581 145.57139 18967 ft 357 kts 327°
2026-04-14 09:10 -38.37399 145.55644 18381 ft 354 kts 327°
2026-04-14 09:10 -38.35243 145.54162 17775 ft 350 kts 327°
2026-04-14 09:10 -38.33099 145.52685 17374 ft 348 kts 327°
2026-04-14 09:10 -38.30971 145.51219 16949 ft 347 kts 327°
2026-04-14 09:11 -38.28853 145.49763 16445 ft 344 kts 327°
2026-04-14 09:11 -38.26752 145.48321 15911 ft 342 kts 327°
2026-04-14 09:11 -38.24665 145.46890 15379 ft 339 kts 327°
2026-04-14 09:11 -38.22592 145.45470 14819 ft 337 kts 327°
2026-04-14 09:12 -38.20533 145.44059 14276 ft 335 kts 327°
2026-04-14 09:12 -38.18488 145.42658 13680 ft 333 kts 327°
2026-04-14 09:12 -38.16456 145.41268 13089 ft 330 kts 327°
2026-04-14 09:12 -38.14431 145.39882 12623 ft 330 kts 327°
2026-04-14 09:13 -38.12412 145.38502 12178 ft 328 kts 327°
2026-04-14 09:13 -38.10412 145.37137 11731 ft 326 kts 327°
2026-04-14 09:13 -38.08440 145.35791 11305 ft 324 kts 327°
2026-04-14 09:13 -38.06479 145.34456 11174 ft 312 kts 327°
2026-04-14 09:14 -38.04599 145.33182 11124 ft 298 kts 327°
2026-04-14 09:14 -38.02799 145.31957 10928 ft 290 kts 326°
2026-04-14 09:14 -38.01032 145.30746 10614 ft 286 kts 326°
2026-04-14 09:14 -37.99294 145.29528 10263 ft 284 kts 326°
2026-04-14 09:15 -37.97573 145.28310 9879 ft 283 kts 326°
2026-04-14 09:15 -37.95847 145.27091 9541 ft 282 kts 326°
2026-04-14 09:15 -37.94134 145.25890 9188 ft 281 kts 326°
2026-04-14 09:15 -37.92440 145.24711 9031 ft 272 kts 326°
2026-04-14 09:16 -37.90794 145.23566 8751 ft 268 kts 326°
2026-04-14 09:16 -37.89214 145.22466 8667 ft 258 kts 326°
2026-04-14 09:16 -37.87650 145.21373 8404 ft 255 kts 326°
2026-04-14 09:16 -37.86100 145.20288 8118 ft 254 kts 326°
2026-04-14 09:17 -37.84561 145.19212 7833 ft 252 kts 326°
2026-04-14 09:17 -37.83026 145.18158 7570 ft 250 kts 327°
2026-04-14 09:17 -37.81490 145.17140 7215 ft 248 kts 328°
2026-04-14 09:17 -37.79961 145.16135 6818 ft 246 kts 328°
2026-04-14 09:18 -37.78451 145.15138 6425 ft 244 kts 328°
2026-04-14 09:18 -37.76982 145.14163 6328 ft 230 kts 327°
2026-04-14 09:18 -37.75487 145.13511 6065 ft 232 kts 352°
2026-04-14 09:18 -37.73886 145.13757 5793 ft 231 kts
2026-04-14 09:19 -37.72325 145.14219 5398 ft 224 kts
2026-04-14 09:19 -37.70867 145.14682 5176 ft 210 kts
2026-04-14 09:19 -37.69489 145.15126 4857 ft 201 kts
2026-04-14 09:19 -37.68146 145.15557 4481 ft 198 kts
2026-04-14 09:20 -37.66812 145.15980 4067 ft 196 kts
2026-04-14 09:20 -37.65492 145.16393 3655 ft 195 kts
2026-04-14 09:20 -37.64173 145.16619 3192 ft 189 kts 345°
2026-04-14 09:20 -37.63093 145.15847 3081 ft 178 kts 305°
2026-04-14 09:21 -37.62700 145.14391 3028 ft 176 kts 266°
2026-04-14 09:21 -37.63179 145.13004 3038 ft 179 kts 227°
2026-04-14 09:21 -37.64301 145.12325 3039 ft 181 kts 191°
2026-04-14 09:21 -37.65543 145.12257 3041 ft 179 kts 184°
2026-04-14 09:22 -37.66740 145.12198 2993 ft 167 kts 201°
2026-04-14 09:22 -37.67564 145.11329 3023 ft 157 kts 247°
2026-04-14 09:22 -37.67604 145.10001 3042 ft 155 kts 282°
2026-04-14 09:22 -37.67515 145.08631 3032 ft 155 kts 266°
2026-04-14 09:23 -37.67485 145.07200 3037 ft 174 kts 272°
2026-04-14 09:23 -37.67410 145.05702 3008 ft 165 kts 273°
2026-04-14 09:23 -37.67333 145.04278 3031 ft 159 kts 273°
2026-04-14 09:23 -37.67259 145.02950 3017 ft 149 kts 273°
2026-04-14 09:24 -37.67187 145.01677 2989 ft 141 kts 273°
2026-04-14 09:24 -37.67118 145.00434 2844 ft 140 kts 273°
2026-04-14 09:24 -37.67050 144.99232 2679 ft 138 kts 272°
2026-04-14 09:24 -37.66981 144.98017 2488 ft 137 kts 272°
2026-04-14 09:25 -37.66913 144.96817 2309 ft 138 kts 272°
2026-04-14 09:25 -37.66844 144.95602 2125 ft 138 kts 272°
2026-04-14 09:25 -37.66775 144.94387 1942 ft 139 kts 272°
2026-04-14 09:25 -37.66706 144.93171 1744 ft 139 kts 271°
2026-04-14 09:26 -37.66636 144.91940 1572 ft 142 kts 271°
2026-04-14 09:26 -37.66565 144.90701 1376 ft 140 kts 271°
2026-04-14 09:26 -37.66495 144.89474 1188 ft 140 kts 271°
2026-04-14 09:26 -37.66424 144.88245 1002 ft 141 kts 271°
2026-04-14 09:27 -37.66355 144.87016 816 ft 140 kts 271°
2026-04-14 09:27 -37.66284 144.85785 600 ft 140 kts 272°
2026-04-14 09:27 -37.66214 144.84567 422 ft 141 kts 272°
2026-04-14 09:27 -37.66152 144.83508 411 ft 89 kts 274°
2026-04-14 09:28 -37.66157 144.82982 408 ft 46 kts 253°
2026-04-14 09:28 -37.66245 144.82747 393 ft 14 kts 234°
2026-04-14 09:28 -37.66312 144.82682 392 ft 13 kts 195°
2026-04-14 09:28 -37.66392 144.82700 388 ft 9 kts 148°
2026-04-14 09:29 -37.66433 144.82762 385 ft 10 kts 115°
2026-04-14 09:29 -37.66448 144.82866 385 ft 13 kts 96°
2026-04-14 09:29 -37.66457 144.82971 388 ft 12 kts 96°
2026-04-14 09:29 -37.66462 144.83076 393 ft 18 kts 92°
2026-04-14 09:30 -37.66473 144.83286 400 ft 25 kts 95°
2026-04-14 09:30 -37.66486 144.83488 403 ft 22 kts 94°
2026-04-14 09:30 -37.66497 144.83671 404 ft 20 kts 94°
2026-04-14 09:30 -37.66508 144.83844 403 ft 20 kts 94°
2026-04-14 09:31 -37.66516 144.84004 403 ft 8 kts 95°
2026-04-14 09:31 -37.66525 144.84075 403 ft 9 kts 108°
2026-04-14 09:31 -37.66552 144.84128 400 ft 5 kts 135°
2026-04-14 09:31 -37.66603 144.84158 398 ft 12 kts 166°
2026-04-14 09:32 -37.66700 144.84176 393 ft 15 kts 172°
2026-04-14 09:32 -37.66813 144.84196 390 ft 18 kts 172°
2026-04-14 09:32 -37.67067 144.84244 384 ft 19 kts 172°
2026-04-14 09:33 -37.67186 144.84283 382 ft 17 kts 137°
2026-04-14 09:33 -37.67199 144.84412 383 ft 14 kts 87°
2026-04-14 09:33 -37.67211 144.84526 384 ft 12 kts 88°
2026-04-14 09:33 -37.67200 144.84624 386 ft 10 kts 81°
2026-04-14 09:34 -37.67191 144.84702 387 ft 8 kts 81°
2026-04-14 09:34 -37.67175 144.84753 389 ft 4 kts 33°
2026-04-14 09:34 -37.67153 144.84760 389 ft 3 kts 13°
2026-04-14 09:34 -37.67143 144.84763 389 ft 1 kts 12°
2026-04-14 09:35 -37.67132 144.84766 390 ft 0 kts 12°